Location: *
(28.3744°N, 81.5492°W)
Time: 02:53:18
(UTC+00:00)

Cosmos 1933 - Pass Details

Date: 15 June 2025
Orbit: 517 x 522 km, 82.5° (Epoch: 11 July)

Event Time Altitude Azimuth Distance (km) Brightness Sun altitude
Rises 09:31:54 0° 0° (N) 2,640 7.3 -11.5°
Reaches altitude 10° 09:34:05 10° 6° (N) 1,750 6.5 -11.1°
Maximum altitude 09:37:50 52° 83° (E) 652 4.1 -10.5°
Drops below altitude 10° 09:41:34 10° 160° (SSE) 1,743 5.7 -9.8°
Sets 09:43:44 0° 165° (SSE) 2,628 6.6 -9.4°
